Location: Malanoce
(44.2500°N, 7.4667°E)
Time: 23:25:59
(UTC+00:00)

Cosmos 1441 Rocket - Pass Details

Date: 17 November 2025
Orbit: 424 x 448 km, 81.1° (Epoch: 09 December)

Event Time Altitude Azimuth Distance (km) Brightness Sun altitude
Rises 16:41:39 0° 342° (NNW) 2,404 6.6 -7.5°
Reaches altitude 10° 16:43:46 10° 335° (NNW) 1,536 5.7 -7.8°
Maximum altitude 16:46:56 41° 264° (W) 641 4.4 -8.4°
Drops below altitude 10° 16:50:06 10° 193° (SSW) 1,535 6.0 -8.9°
Sets 16:52:13 0° 186° (S) 2,403 6.9 -9.3°
